Location: ?????????
(54.7630°N, 39.4991°E)
Time: 07:11:05
(UTC+00:00)

Cosmos 2150 Rocket - Pass Details

Date: 14 April 2026
Orbit: 745 x 803 km, 74.0° (Epoch: 10 May)

Event Time Altitude Azimuth Distance (km) Brightness Sun altitude
Exits shadow 19:28:20 49° 136° (SE) 970 4.1 -21.3°
Maximum altitude 19:29:00 52° 109° (ESE) 931 4.1 -21.4°
Drops below altitude 10° 19:34:02 10° 34° (NE) 2,300 6.8 -21.7°
Sets 19:36:28 0° 30° (NNE) 3,238 7.7 -21.9°
